Find Starlink 32453

NORAD ID: 61671 Int'l Des: 2024-193 Owner: SPXS Country: US Constellation: starlink operational
LEOCIRCULAR

当前视图

正在加载3D地球...

About Starlink 32453

Starlink 32453 (NORAD 61671) is a starlink constellation satellite (v2 mini) launched Oct 26, 2024 by SPXS of US. It operates in LEO, CIRCULAR orbit with a mass of 730.00 kg.

关于 Starlink 32453

正在加载描述...

即将过境

Passes for default location (London). Set your location on the main map for personalized predictions.

高度历史

Loading altitude history...

两行轨道根数

1 61671U 24193L 26168.78885647 .00000519 00000-0 29659-4 0 9996
2 61671 53.1604 345.9616 0001008 88.2868 271.8248 15.30195925 91850
Epoch: Jun 17, 2026 • Age: 11 hours

当前状态

高度 478.9 km
速度 7.63 km/s
星下点 43.11°N, 29.12°E
发射日期 Oct 26, 2024
运行时间 1.6 years
类型 internet

技术详情

分类 Payload
质量 730.00 kg
干质量 700.00 kg
总质量 730.00 kg
长度 0.30 m
直径 4.10 m
跨度 29.00 m
形状 Box + pan
制造商 SPXS
平台类型 Starlink V2M
阶段状态 In Orbit
所有者/国家 SPXS/US

Most Searched